Regional Weather Roundup
Issued by NWS

Home | Current Version | Previous Version | Graphics & Text | Print | Product List | Glossary On
Versions: 1 2 3 4 5 6 7 8 9 10 11 12 13 14 15 16 17 18 19 20 21 22 23 24 25 26 27
000
ASUS45 KSLC 240310
RWRUT

UTAH REGIONAL WEATHER ROUNDUP
NATIONAL WEATHER SERVICE SALT LAKE CITY UT
900 PM MDT TUE MAY 23 2017

UTZ001>011-023>025-240400-

NORTHERN UTAH

CITY           SKY/WX    TMP DP  RH WIND       PRES   REMARKS
BRIGHAM CITY   CLEAR     71  39  31 SE3       30.01F
HILL AFB       CLEAR     71  31  22 E3        30.04F
LOGAN          CLEAR     71  42  35 S6        30.01F
OGDEN          CLEAR     69  34  27 SE3       30.01F
SALT LAKE CITY PTCLDY    75  40  28 NE3       30.01F
TOOELE VALLEY  CLEAR     64  50  59 CALM      30.02F
WENDOVER       CLEAR     77  39  25 CALM      29.99F
HEBER CITY     CLEAR     61  32  33 CALM      30.09S
WEST JORDAN    CLEAR     73  51  45 NW3       30.05S

$$

UTZ011>015-024>027-240400-

CENTRAL/NORTHEAST UTAH

CITY           SKY/WX    TMP DP  RH WIND       PRES   REMARKS
PROVO AIRPORT  CLEAR     69  53  56 NW6       30.04F
MOAB/CANYONLAN CLEAR     70  28  21 SE5       30.02S
DELTA          CLEAR     72  32  23 CALM      30.04S
PRICE          NOT AVBL
RICHFIELD      CLEAR     61  34  36 CALM      30.10F
ROOSEVELT      CLEAR     64  36  34 N5        30.09S
VERNAL         CLOUDY    63  39  41 SW3       30.07S

$$

UTZ013>016-019>022-027-240400-

SOUTHERN UTAH

CITY           SKY/WX    TMP DP  RH WIND       PRES   REMARKS
BRYCE CANYON   CLEAR     58  24  27 NW7       30.24S
CEDAR CITY     CLEAR     69  36  29 CALM      30.07F
MILFORD        CLEAR     66  38  35 CALM      30.03F
ST GEORGE      CLEAR     88  29  12 W7        29.89S
HANKSVILLE     CLEAR     73  28  19 E3        30.03R
KANAB          CLEAR     73  28  19 W3        30.08S
BLANDING       CLEAR     61  28  28 CALM      30.20R

$$

REGIONAL REPORTS     COLORADO/ARIZONA

CITY           SKY/WX    TMP DP  RH WIND       PRES   REMARKS
CRAIG, CO      CLEAR     49  35  58 CALM      30.14F
GRAND JUNCTION CLEAR     63  28  26 E7        30.06S
RIFLE, CO      CLEAR     59  27  29 CALM      30.12S
MONTROSE, CO   CLEAR     61  28  28 S6        30.14S
CORTEZ, CO     CLEAR     59  28  30 N5        30.13S
COLORADO CITY    N/A     75  30  19 CALM      30.08S
PAGE, AZ       CLEAR     77  36  22 NE5       30.00S
GRAND CANYON   CLEAR     53  26  35 CALM      30.21R HAZE
KINGMAN, AZ    CLEAR     81  24  12 MISG      29.95S
FLAGSTAFF, AZ  PTCLDY    62  26  25 E3        30.22R

$$

REGIONAL REPORTS    NEVADA/IDAHO/WYOMING

CITY           SKY/WX    TMP DP  RH WIND       PRES   REMARKS
LAS VEGAS, NV  PTCLDY    95  21   7 E3        29.82R
ELY, NY        CLEAR     68  25  19 CALM      30.12S
ELKO, NV       CLEAR     71  36  27 NW7       30.06S
POCATELLO, ID  CLEAR     65  42  43 S10       29.99F
BURLEY, ID     CLEAR     71  39  31 W6        29.96F
FORT BRIDGER,    N/A     58  34  40 W7        30.19S
EVANSTON, WY   CLEAR     57  34  41 W8        30.18F
ROCK SPRINGS,  CLOUDY    59  35  40 SW9       30.11F
KEMMERER, WY     N/A     55  37  50 W10       30.18S

$$




USA.gov is the U.S. government's official web portal to all federal, state and local government web resources and services.